SCP
0 0 0 0 0 0 0 0 0 0 0 0 0 0 0 0 0 0 0 0 0 0 0 0 0 0 0 0 0 0 0 0 0 0 0 0 0 0 0 0 0 0 0 0 0 0 0 0 0
0 0 0 0 0 0 0 0 0 0 0 0 0 0 0 0 0 0 0 0 0 0 0 0 0 0 0 0 0 0 0 0 0 0 0 0 0 0 0 0 0 0 0 0 0 0 0 0 0
0 0 0 0 0 0 0 0 0 0 0 0 0 0 0 0 0 0 0 0 0 0 0 0 0 0 0 0 0 0 0 0 0 0 0 0 0 0 0 0 0 0 0 0 0 0 0 0 0
0 0 0 0 0 0 0 0 0 0 0 0 0 0 0 0 0 0 0 0 0 0 0 0 0 0 0 0 0 0 0 0 0 0 0 0 0 0 0 0 0 0 0 0 0 0 0 0 0
0 0 0 0 0 0 0 0 0 0 0 0 0 0 0 0 0 0 0 0 0 0 0 0 0 0 0 0 0 0 0 0 0 0 0 0 0 0 0 0 0 0 0 0 0 0 0 0 0
0 0 0 0 0 0 0 0 0 0 0 0 0 0 0 0 0 0 0 0 0 0 0 0 0 0 0 0 0 0 0 0 0 0 0 0 0 0 0 0 0 0 0 0 0 0 0 0 0
0 0 0 0 0 0 0 0 0 0 0 0 0 0 0 0 0 0 0 0 0 0 0 0 0 0 0 0 0 0 0 0 0 0 0 0 0 0 0 0 0 0 0 0 0 0 0 0 0
0 0 0 0 0 0 0 0 0 0 0 0 0 0 0 0 0 0 0 0 0 0 0 0 0 0 0 0 0 0 0 0 0 0 0 0 0 0 0 0 0 0 0 0 0 0 0 0 0
0 0 0 0 0 0 0 0 0 0 0 0 0 0 0 0 0 0 0 0 0 0 0 0 0 0 0 0 0 0 0 0 0 0 0 0 0 0 0 0 0 0 0 0 0 0 0 0 0
0 0 0 0 0 0 0 0 0 0 0 0 0 0 0 0 0 0 0 0 0 0 0 0 0 0 0 0 0 0 0 0 0 0 0 0 0 0 0 0 0 0 0 0 0 0 0 0 0
0 0 0 0 0 0 0 0 0 0 0 0 0 0 0 0 0 0 0 0 0 0 0 0 0 0 0 0 0 0 0 0 0 0 0 0 0 0 0 0 0 0 0 0 0 0 0 0 0
0 0 0 0 0 0 0 0 0 0 0 0 0 0 0 0 0 0 0 0 0 0 0 0 0 0 0 0 0 0 0 0 0 0 0 0 0 0 0 0 0 0 0 0 0 0 0 0 0
0 0 0 0 0 0 0 0 0 0 0 0 0 0 0 0 0 0 0 0 0 0 0 0 0 0 0 0 0 0 0 0 0 0 0 0 0 0 0 0 0 0 0 0 0 0 0 0 0
0 0 0 0 0 0 0 0 0 0 0 0 0 0 0 0 0 0 0 0 0 0 0 0 0 0 0 0 0 0 0 0 0 0 0 0 0 0 0 0 0 0 0 0 0 0 0 0 0
0 0 0 0 0 0 0 0 0 0 0 0 0 0 0 0 0 0 0 0 0 0 0 0 0 0 0 0 0 0 0 0 0 0 0 0 0 0 0 0 0 0 0 0 0 0 0 0 0
0 0 0 0 0 0 0 0 0 0 0 0 0 0 0 0 0 0 0 0 0 0 0 0 0 0 0 0 0 0 0 0 0 0 0 0 0 0 0 0 0 0 0 0 0 0 0 0 0
0 0 0 0 0 0 0 0 0 0 0 0 0 0 0 0 0 -0 0 0 0 0 0 0 0 0 0 0 0 0 0 0 0 0 0 0 0 0 0 0 0 0 0 0 0 0 0 0 0
0 0 0 0 0 0 0 0 0 0 0 0 0 0 0 0 0 -0 -0 -0 0 0 0 0 0 0 0 0 0 0 0 0 0 0 0 0 0 0 0 0 0 0 0 0 0 0 0 0 0
0 0 0 0 0 0 0 0 0 0 0 0 0 0 0 0 0 0 -0 -0 0 0 0 0 0 0 0 0 0 0 0 0 0 0 0 0 0 0 0 0 0 0 0 0 0 0 0 0 0
0 0 0 0 0 0 0 0 0 0 0 0 0 0 0 0 0 0 -0 0 0 -0 0 0 0 0 0 0 0 0 0 0 0 0 0 0 0 0 0 0 0 0 0 0 0 0 0 0 0
0 0 0 0 0 0 0 0 0 0 0 0 0 0 0 0 0 0 0 0 -0 -0 -0 0 0 0 0 0 0 0 0 0 0 0 0 0 0 0 0 0 0 0 0 0 0 0 0 0 0
0 0 0 0 0 0 0 0 0 0 0 0 0 0 0 0 0 0 0 0 0 -0 -0 -0 0 0 0 0 0 0 0 0 0 0 0 0 0 0 0 0 0 0 0 0 0 0 0 0 0
0 0 0 0 0 0 0 0 0 0 0 0 0 0 0 0 0 0 0 0 0 -0 -0 -0 -0 0 0 0 0 0 0 0 0 0 0 0 0 0 0 0 0 0 0 0 0 0 0 0 0
0 0 0 0 0 0 0 0 0 0 0 0 0 0 0 0 0 0 0 0 0 0 -0 -0 -0 -0 0 0 0 0 0 0 0 0 0 0 0 0 0 0 0 0 0 0 0 0 0 0 0
0 0 0 0 0 0 0 0 0 0 0 0 -0 -0 0 0 0 0 0 0 0 0 0 -0 -0 -0 0 0 0 0 0 0 0 0 0 0 0 0 0 0 0 0 0 0 0 0 0 0 0
0 0 0 0 0 0 0 0 0 0 0 0 -0 -0 -0 0 0 0 0 0 0 0 0 0 0 0 0 0 0 0 0 0 0 0 0 0 0 0 0 0 0 0 0 0 0 0 0 0 0
0 0 0 0 0 0 0 0 0 0 0 0 0 0 0 0 0 0 0 0 0 0 0 0 0 0 0 0 0 0 0 0 0 0 0 0 0 0 0 0 0 0 0 0 0 0 0 0 0
0 0 0 0 0 0 0 0 0 0 0 0 0 0 0 0 0 0 0 0 0 0 0 0 0 0 0 0 0 0 0 0 0 0 0 0 0 0 0 0 0 0 0 0 0 0 0 0 0
0 0 0 0 0 0 0 0 0 0 0 0 0 0 0 0 0 0 0 0 0 0 0 0 0 0 0 0 0 0 0 0 0 0 0 0 0 0 0 0 0 0 0 0 0 0 0 0 0
0 0 0 0 0 0 0 0 0 0 0 0 0 0 0 0 0 0 0 0 0 0 0 0 0 0 0 0 0 0 0 0 0 0 0 0 0 0 0 0 0 0 0 0 0 0 0 0 0
Wind_Speed
7 3 1 3 5 3 2 2 1 0 1 1 1 2 5 4 3 2 1 1 2 2 1 2 4 6 7 8 8 9 9 8 9 9 9 9 9 9 9 9 9 9 9 9 9 9 10 10 10
2 2 4 4 3 2 3 2 2 1 1 2 3 3 3 2 1 2 1 1 2 3 2 2 4 7 7 8 8 8 8 8 8 9 9 9 9 9 8 8 8 9 8 8 9 9 9 10 10
0 3 4 4 3 4 3 1 1 1 2 2 2 2 2 1 1 1 0 2 3 3 3 3 6 7 7 8 8 7 7 8 8 8 8 8 8 8 8 8 8 8 8 8 8 8 9 9 9
2 4 4 3 3 3 2 1 1 1 2 3 3 2 1 2 1 1 2 3 4 4 3 3 6 7 7 7 7 7 7 7 7 7 7 8 8 8 8 8 8 8 8 8 8 8 9 9 9
3 4 3 1 3 2 1 1 2 1 1 2 2 2 0 2 3 3 3 5 4 4 3 4 6 7 7 7 7 7 7 7 7 7 7 8 8 8 8 8 8 8 8 8 9 9 9 9 9
4 4 3 3 3 2 1 0 1 1 1 1 2 2 1 2 3 3 3 4 4 4 4 4 6 7 7 7 7 7 7 8 8 8 8 8 8 8 8 8 8 8 8 8 8 9 9 9 9
4 4 3 4 3 2 1 1 2 2 1 2 2 3 1 1 1 2 3 4 4 4 4 3 4 5 6 7 7 7 7 7 7 7 8 8 9 9 9 9 9 9 9 9 9 9 9 8 9
4 4 2 3 3 3 1 1 1 2 2 0 2 3 3 2 2 3 4 4 4 4 4 3 4 4 4 4 6 7 7 7 7 8 8 8 8 9 9 8 8 9 9 10 10 11 10 10 9
3 3 3 4 5 3 2 2 0 1 2 0 0 1 1 5 5 5 4 3 3 3 2 3 3 3 3 3 5 5 6 6 6 6 8 7 4 4 5 7 8 9 9 10 10 11 11 10 9
4 3 5 2 3 2 2 2 3 2 1 1 1 0 3 6 6 5 5 5 4 3 1 2 2 2 2 3 3 2 3 3 3 3 3 3 3 3 4 7 8 9 9 9 10 11 10 8 4
2 3 1 0 1 2 2 2 2 4 3 6 6 5 5 5 6 6 5 5 5 4 3 2 2 2 2 2 2 2 2 2 2 3 3 2 3 3 3 2 3 4 6 5 6 6 4 4 3
3 0 1 0 1 1 2 2 2 4 5 3 4 6 7 7 7 7 7 5 4 4 4 3 2 2 2 2 2 2 1 1 2 2 2 2 2 2 2 2 2 2 2 3 3 3 4 4 4
2 0 1 1 2 1 1 2 3 4 4 1 3 6 7 7 6 5 5 4 4 4 4 3 3 3 2 2 2 2 2 2 2 2 2 2 2 2 2 2 2 2 2 2 2 3 3 3 3
1 1 1 1 1 1 0 2 2 5 2 2 4 6 7 7 7 5 5 5 5 5 5 5 4 4 3 2 1 2 2 2 2 2 2 2 2 2 2 2 2 2 2 2 2 2 2 2 3
2 2 3 1 0 1 0 4 6 5 2 3 4 5 6 6 6 7 7 7 6 6 5 6 5 4 4 3 2 2 2 2 2 2 2 2 2 2 2 2 2 1 2 2 2 2 2 2 3
2 2 2 3 1 1 1 8 5 3 3 5 5 5 6 6 7 7 6 6 5 5 5 6 5 5 5 4 2 2 2 2 2 2 2 2 2 3 3 2 1 1 2 2 2 2 2 2 2
2 0 3 4 1 1 3 8 5 2 3 5 6 6 6 6 7 6 6 6 6 6 6 6 6 6 5 4 3 2 2 2 2 2 2 2 3 3 3 2 2 2 2 2 2 2 2 2 2
3 2 3 4 2 2 4 9 9 4 5 7 6 6 7 8 9 7 6 6 6 5 5 5 6 6 5 3 2 1 2 1 1 2 2 3 3 3 3 3 2 2 2 2 2 2 2 2 2
3 3 3 4 1 2 6 10 12 7 6 8 8 8 9 9 6 5 6 6 5 5 5 5 6 6 5 3 3 3 3 2 2 2 2 3 3 3 3 3 3 2 2 2 3 3 3 2 2
2 2 3 3 1 2 5 11 10 7 8 9 10 10 10 8 5 5 5 6 7 7 6 6 7 7 7 5 3 2 2 2 2 1 2 2 3 3 3 3 3 3 2 3 3 3 2 1 1
3 4 3 3 3 1 4 9 7 6 6 7 8 9 8 9 8 6 7 7 7 8 8 7 7 7 7 6 3 2 1 1 2 2 2 2 3 3 3 3 4 3 3 3 3 4 4 3 1
4 3 3 2 1 3 1 6 8 5 6 8 9 8 9 9 8 7 7 8 9 9 7 7 7 6 6 7 6 6 5 4 4 3 3 2 3 4 3 4 4 4 3 4 3 3 3 4 2
3 1 1 1 1 2 1 3 11 2 7 9 9 9 9 8 8 8 9 9 8 7 7 7 7 6 6 7 8 7 5 4 2 3 3 3 3 3 4 4 4 4 3 4 4 3 3 3 3
2 2 2 3 3 3 4 4 10 5 8 6 6 6 7 7 7 7 7 6 5 5 6 6 7 7 6 6 7 8 8 6 5 5 5 4 2 3 4 4 4 4 3 4 4 4 4 3 3
1 3 3 4 3 6 2 5 13 8 6 6 7 7 6 6 6 6 6 6 6 7 7 7 8 8 7 7 7 8 8 8 8 7 6 5 4 3 5 5 5 4 4 4 4 4 4 4 4
2 3 5 4 5 6 2 8 11 6 5 5 6 6 4 4 4 6 7 7 7 7 8 8 9 8 7 8 7 7 7 6 6 7 6 6 5 5 5 5 5 5 5 4 4 3 4 4 4
3 2 2 4 0 4 7 9 12 4 4 4 4 4 4 4 4 5 4 5 6 6 8 9 9 8 8 8 7 7 7 7 6 6 6 5 4 4 5 5 5 5 5 5 5 4 4 4 4
1 4 4 3 2 5 8 7 7 6 5 4 4 4 5 4 4 4 3 4 5 5 5 6 7 8 7 7 7 6 7 7 6 6 6 6 5 5 5 5 6 6 5 5 5 4 4 4 3
3 3 3 3 3 4 5 10 7 6 5 5 6 5 5 5 5 4 4 3 3 3 3 5 6 6 6 6 6 6 6 6 6 6 7 7 6 6 6 6 6 6 6 5 5 5 4 5 4
3 5 6 5 4 4 4 12 5 4 4 4 5 5 4 4 4 4 3 3 2 3 3 4 5 5 6 6 6 6 6 6 6 7 7 7 6 6 6 6 6 6 6 6 6 6 6 6 5
Wind_Direction
337 337 59 62 60 63 208 235 196 347 35 18 40 105 129 132 153 182 7 73 92 120 120 118 105 106 103 100 97 95 94 90 89 86 82 78 74 71 68 64 61 65 68 69 72 72 72 73 74
328 4 57 66 104 184 244 235 207 205 142 89 45 60 86 89 62 81 35 29 96 111 104 108 96 104 107 103 99 96 95 93 90 88 84 79 76 71 69 66 63 65 68 71 72 74 76 76 75
320 50 85 89 135 189 212 216 194 26 77 91 77 49 90 114 98 115 14 83 95 94 88 95 94 99 107 107 103 99 99 97 91 89 87 84 79 75 71 68 66 66 65 69 74 75 76 76 77
76 53 62 91 189 216 213 238 182 101 45 46 99 93 62 33 89 123 101 95 95 85 78 92 98 99 100 103 105 103 100 100 93 90 91 87 80 73 70 67 66 65 64 64 69 76 74 76 75
64 83 85 115 220 232 229 226 154 119 94 37 100 124 124 31 65 93 104 102 98 88 76 85 94 95 94 94 99 101 98 97 92 89 89 86 80 75 71 69 67 67 64 66 68 71 74 75 74
64 78 116 202 221 232 253 191 133 99 99 95 104 131 181 79 73 88 104 101 97 96 82 86 91 89 88 89 90 96 93 90 85 83 83 82 78 72 68 69 70 69 71 72 72 68 72 75 75
107 107 160 185 199 220 201 118 146 152 163 201 174 145 201 127 76 103 101 97 86 85 88 81 86 86 84 83 84 89 89 86 83 79 78 76 73 72 67 67 70 70 72 73 71 71 66 71 76
115 111 146 194 193 219 178 125 155 155 191 148 142 162 204 191 126 103 99 98 92 79 79 81 81 80 79 77 80 82 86 86 81 76 71 69 69 65 60 57 67 72 74 74 72 70 63 60 68
83 91 197 208 194 210 165 144 33 64 115 131 283 229 207 131 127 116 111 105 106 92 76 74 79 85 88 89 83 82 83 82 78 73 72 69 62 59 56 52 60 66 71 74 73 71 67 58 58
86 161 219 213 185 173 164 170 171 120 123 238 272 315 111 136 150 154 159 163 162 157 133 92 93 95 106 104 90 79 78 79 73 70 72 68 66 60 60 55 57 58 61 66 68 67 61 53 47
106 173 192 54 119 152 163 172 171 161 221 217 212 193 161 165 173 180 183 184 183 172 164 147 130 113 112 116 110 90 87 86 82 80 73 74 71 68 61 59 50 52 53 53 58 54 49 46 50
107 114 164 190 76 135 184 173 197 204 227 232 203 172 174 186 193 197 194 192 185 179 180 167 151 138 120 127 130 120 113 109 102 99 95 95 91 82 75 67 56 52 52 58 57 60 56 48 49
108 163 18 51 56 96 138 210 226 243 255 218 156 170 189 196 205 208 197 187 185 191 185 176 158 154 147 133 150 139 139 134 133 118 105 108 114 111 99 86 71 63 64 68 68 67 62 51 42
146 107 8 348 18 62 132 270 234 253 220 176 182 194 204 203 204 200 197 195 198 200 189 178 175 171 158 159 162 163 154 146 142 137 128 123 123 125 116 105 95 80 77 78 81 77 73 59 49
84 43 353 320 264 237 48 290 233 234 172 209 218 222 223 221 212 212 207 204 201 201 194 183 180 174 167 170 171 167 162 152 154 155 148 143 134 134 127 121 111 105 90 85 81 74 72 69 58
63 54 309 287 204 202 147 266 254 201 179 232 235 233 232 231 222 222 213 206 198 194 195 193 180 178 178 177 175 177 164 165 171 166 165 159 149 148 142 133 132 129 115 102 97 90 77 67 62
48 234 254 282 229 158 196 255 262 197 197 236 237 234 233 237 234 224 212 204 198 196 194 195 187 186 186 179 167 166 172 173 181 170 175 177 166 160 151 148 152 140 121 115 115 93 92 86 69
213 217 239 247 257 182 232 256 267 238 223 239 239 237 238 237 236 221 208 202 197 195 194 199 190 187 183 175 156 157 174 180 182 186 188 180 175 170 160 154 157 144 128 124 116 109 86 99 95
164 178 240 257 258 230 248 262 266 252 235 243 241 237 240 241 239 211 201 193 189 190 192 198 196 188 177 179 178 183 200 197 200 207 196 188 179 173 166 159 159 157 153 150 136 119 104 86 92
183 213 260 286 296 241 280 275 266 245 230 230 234 233 234 240 239 217 202 193 195 198 201 202 204 195 190 190 187 179 176 185 197 205 203 186 174 172 168 163 167 165 151 145 146 134 121 114 110
231 212 231 266 325 309 318 297 268 252 236 238 233 231 232 229 231 220 208 204 203 203 202 206 207 201 197 188 168 138 107 140 175 204 209 203 183 174 171 172 164 167 164 170 172 162 151 155 150
247 218 208 236 344 305 28 297 282 257 264 244 239 234 235 233 228 218 210 210 211 212 205 203 203 203 198 185 183 177 189 205 203 194 194 203 192 182 177 173 170 172 173 174 179 169 161 155 169
219 107 161 169 163 309 272 254 280 279 262 252 238 233 236 233 225 222 217 214 214 209 205 200 200 202 197 195 193 188 200 208 185 173 189 203 208 191 184 180 176 181 183 182 178 171 164 164 168
154 71 71 62 73 280 226 209 276 236 230 248 241 236 238 239 234 230 221 214 213 205 202 196 198 205 199 199 200 195 199 194 186 190 195 203 207 204 193 186 185 186 188 190 187 182 177 178 176
103 93 30 358 350 256 215 224 254 251 239 235 247 254 252 241 235 231 221 215 214 208 204 199 200 208 201 200 205 202 202 197 199 199 198 197 201 211 204 192 193 193 194 192 184 182 185 182 183
188 154 158 203 241 281 266 242 256 264 270 260 260 262 267 258 243 234 225 217 215 212 207 202 204 210 204 203 209 205 201 201 207 206 199 201 205 209 200 194 195 196 192 188 182 185 191 185 190
149 186 158 135 67 287 270 278 296 281 289 280 283 288 274 266 254 245 239 226 221 217 211 206 206 211 208 207 206 203 202 202 206 205 202 203 204 198 194 194 193 194 190 188 182 191 196 190 193
141 147 118 137 187 274 289 275 263 287 284 297 301 295 293 296 282 267 250 240 233 225 218 208 207 212 212 206 206 206 204 204 203 199 204 203 201 194 189 194 195 193 191 188 187 192 190 186 194
148 153 150 148 175 189 278 274 230 237 256 271 280 290 288 289 282 272 261 249 242 233 215 209 209 213 213 209 207 206 207 203 197 200 207 203 198 195 196 197 196 195 193 189 190 196 185 191 197
190 190 166 176 222 207 237 270 263 241 271 275 283 290 290 285 282 280 274 267 252 239 229 219 213 216 218 210 205 209 208 200 199 205 206 199 197 198 199 194 194 197 196 191 193 197 193 194 200